"2009-02-13 00:00:00",625310,3.577,9.18,6.596,1.134,2.434,100.5585,0.724,1.793,39.27,0,109.7,13.51,1.48,331.2
"2009-02-13 00:00:30",625311,3.134,5.964,6.018,0.956,1.147,100.5593,0.727,1.647,39.17,0,109.7,13.52,1.48,328.0
"2009-02-13 00:01:00",625312,4.941,21.35,7.293,1.214,4.324,100.5508,0.705,1.872,39.64,0,109.7,13.52,1.46,343.4
"2009-02-13 00:01:30",625313,5.644,15.2,5.087,0.724,5.825,100.5466,0.694,1.949,39.68,0,109.7,13.52,1.45,337.2
"2009-02-13 00:02:00",625314,4.713,14.97,6.187,0.993,4.451,100.5458,0.692,1.862,39.6,0,109.7,13.52,1.45,337.0
"2009-02-13 00:02:30",625315,4.461,16.89,6.825,1.009,3.653,100.5495,0.702,1.862,39.77,0,109.7,13.52,1.46,338.9
"2009-02-13 00:03:00",625316,3.799,9.8,7.499,1.465,2.529,100.5514,0.707,1.621,39.65,0,109.7,13.52,1.46,331.8
"2009-02-13 00:03:30",625317,3.974,10.95,7.902,1.437,2.194,100.5523,0.709,1.691,39.69,0,109.7,13.52,1.46,333.0
"2009-02-13 00:04:00",625318,4.8,12.57,6.52,1.246,4.847,100.5566,0.72,1.842,39.88,0,109.7,13.52,1.47,334.6
"2009-02-13 00:04:30",625319,5.214,19.88,5.722,0.82,6.07,100.5574,0.722,1.895,40.05,0,109.7,13.52,1.48,341.9
"2009-02-13 00:05:00",625320,4.234,14.51,6.744,1.149,3.929,100.5518,0.707,1.822,40.09,0,109.7,13.52,1.46,336.5
"2009-02-13 00:05:30",625321,4.389,15.04,6.276,1.131,4.452,100.5473,0.696,1.789,39.92,0,109.7,13.52,1.45,337.0
"2009-02-13 00:06:00",625322,3.476,5.642,7.875,1.083,1.815,100.5428,0.684,1.567,39.59,0,109.7,13.52,1.44,327.6
"2009-02-13 00:06:30",625323,3.721,8.22,6.911,1.18,2.555,100.5329,0.659,1.696,39.77,0,109.7,13.52,1.41,330.2
"2009-02-13 00:07:00",625324,4.701,13.47,8.79,0.892,5.154,100.5349,0.664,1.809,39.91,0,109.7,13.52,1.42,335.5
"2009-02-13 00:07:30",625325,4.938,14.04,5.531,0.915,5.807,100.5343,0.663,1.863,40,0,109.7,13.52,1.42,336.0
"2009-02-13 00:08:00",625326,5.095,7.338,5.974,1.281,4.781,100.5351,0.665,1.751,39.83,0,109.7,13.53,1.42,329.3
"2009-02-13 00:08:30",625327,5.085,9.37,6.174,0.96,4.419,100.5374,0.671,1.726,39.88,0,109.6,13.53,1.43,331.4
"2009-02-13 00:09:00",625328,3.307,0.316,2.289,0.681,0.973,100.5394,0.676,1.666,39.92,0,109.7,13.53,1.43,322.3
"2009-02-13 00:09:30",625329,4.73,5.298,6.137,1.367,3.779,100.5417,0.682,1.727,39.95,0,109.7,13.53,1.44,327.3
"2009-02-13 00:10:00",625330,5.418,4.541,7.095,1.129,4.776,100.5414,0.681,1.806,39.92,0,109.7,13.53,1.44,326.5
"2009-02-13 00:10:30",625331,4.827,7.249,6.303,1.207,4.754,100.5425,0.684,1.772,39.96,0,109.7,13.53,1.44,329.2
"2009-02-13 00:11:00",625332,4.335,5.057,5.984,1.245,3.585,100.5428,0.685,1.709,40.05,0,109.6,13.54,1.44,327.1
"2009-02-13 00:11:30",625333,3.852,0.883,6.769,0.952,2.525,100.5428,0.685,1.683,40.05,0,109.6,13.54,1.44,322.9
"2009-02-13 00:12:00",625334,4.336,359.5,7.416,0.91,2.618,100.5391,0.675,1.762,40.14,0,109.6,13.54,1.43,321.5
"2009-02-13 00:12:30",625335,4.309,6.676,6.589,1.408,3.958,100.5349,0.664,1.691,40.12,0,109.6,13.54,1.42,328.7
"2009-02-13 00:13:00",625336,5.303,5.974,6.796,1.038,4.974,100.5287,0.649,1.777,40.02,0,109.6,13.54,1.40,328.0
"2009-02-13 00:13:30",625337,5.517,4.586,5.947,1.225,4.945,100.523,0.634,1.762,40.05,0,109.6,13.54,1.39,326.6
"2009-02-13 00:14:00",625338,3.73,3.926,6.754,1.326,2.748,100.5225,0.633,1.651,39.97,0,109.6,13.54,1.39,325.9
"2009-02-13 00:14:30",625339,3.814,5.747,8.08,1.052,2.492,100.5225,0.633,1.584,40,0,109.6,13.54,1.39,327.7
"2009-02-13 00:15:00",625340,4.573,8.26,8.1,1.206,3.692,100.5216,0.63,1.725,40.21,0,109.6,13.54,1.38,330.3
"2009-02-13 00:15:30",625341,3.781,2.68,5.256,1.243,2.77,100.5165,0.617,1.711,40.22,0,109.6,13.54,1.37,324.7
"2009-02-13 00:16:00",625342,4.469,11.2,6.627,1.31,4.684,100.5103,0.602,1.776,40.4,0,109.6,13.54,1.36,333.2
"2009-02-13 00:16:30",625343,5.581,5.292,7.998,1.454,4.82,100.5097,0.6,1.76,40.16,0,109.6,13.54,1.35,327.3
"2009-02-13 00:17:00",625344,4.265,4.256,6.402,1.534,3.588,100.5094,0.599,1.721,40.05,0,109.6,13.54,1.35,326.3
"2009-02-13 00:17:30",625345,3.901,1.427,7.266,0.994,2.158,100.5092,0.599,1.666,40.16,0,109.6,13.54,1.35,323.4
"2009-02-13 00:18:00",625346,3.971,13.36,7.474,1.193,4.201,100.51,0.601,1.75,40.42,0,109.6,13.54,1.35,335.4
"2009-02-13 00:18:30",625347,2.912,5.176,4.658,0.814,1.649,100.5131,0.609,1.586,40.37,0,109.6,13.54,1.36,327.2
"2009-02-13 00:19:00",625348,3.702,11.02,7.693,1.119,3.866,100.5157,0.615,1.758,40.56,0,109.6,13.55,1.37,333.0
"2009-02-13 00:19:30",625349,4.138,16.02,7.009,1.176,4.852,100.5174,0.62,1.76,40.54,0,109.6,13.54,1.37,338.0
"2009-02-13 00:20:00",625350,3.036,8.87,5.458,1.134,2.512,100.5177,0.62,1.61,40.27,0,109.6,13.54,1.37,330.9
"2009-02-13 00:20:30",625351,4.104,6.844,8.6,1.14,3.312,100.5197,0.626,1.675,40.22,0,109.6,13.54,1.38,328.8
"2009-02-13 00:21:00",625352,4.347,8.24,8.29,1.227,3.416,100.5211,0.629,1.754,40.39,0,109.6,13.54,1.38,330.2
"2009-02-13 00:21:30",625353,4.513,11.3,7.764,1.008,4.747,100.5242,0.637,1.732,40.43,0,109.6,13.54,1.39,333.3
"2009-02-13 00:22:00",625354,4.507,11.55,5.329,1.219,4.643,100.5254,0.64,1.752,40.36,0,109.6,13.54,1.39,333.5
"2009-02-13 00:22:30",625355,4.127,9.34,5.641,1.163,4.13,100.5276,0.646,1.717,40.46,0,109.6,13.54,1.40,331.3
"2009-02-13 00:23:00",625356,2.923,1.609,3.501,0.474,1.48,100.5271,0.644,1.572,40.39,0,109.6,13.58,1.40,323.6
"2009-02-13 00:23:30",625357,4.543,3.238,6.507,1.401,3.128,100.5276,0.646,1.738,40.59,0,109.6,13.54,1.40,325.2
"2009-02-13 00:24:00",625358,4.442,10.11,6.699,1.17,4.193,100.5285,0.648,1.757,40.59,0,109.6,13.55,1.40,332.1
"2009-02-13 00:24:30",625359,4.806,14.22,7.132,1.119,5.151,100.5288,0.649,1.751,40.59,0,109.6,13.55,1.40,336.2
"2009-02-13 00:25:00",625360,4.461,9.47,4.676,1.444,4.191,100.5291,0.65,1.761,40.71,0,109.6,13.56,1.40,331.5
"2009-02-13 00:25:30",625361,4.602,8.44,7.181,1.209,3.707,100.5316,0.656,1.748,40.66,0,109.6,13.56,1.41,330.4
"2009-02-13 00:26:00",625362,3.663,6.04,6.718,1.033,2.696,100.5297,0.651,1.658,40.57,0,109.6,13.56,1.41,328.0
"2009-02-13 00:26:30",625363,4.69,9.09,7.445,1.247,4.319,100.5328,0.659,1.711,40.69,0,109.6,13.56,1.41,331.1
"2009-02-13 00:27:00",625364,4.714,15.12,9.51,1.199,4.627,100.5311,0.655,1.739,40.78,0,109.6,13.56,1.41,337.1
"2009-02-13 00:27:30",625365,4.879,11.52,6.046,1.028,5.125,100.5217,0.631,1.781,40.8,0,109.6,13.56,1.38,333.5
"2009-02-13 00:28:00",625366,4.172,13.48,8.4,0.914,4.483,100.5201,0.627,1.692,40.72,0,109.6,13.56,1.38,335.5
"2009-02-13 00:28:30",625367,2.347,6.158,10.18,1.068,2.459,100.5175,0.62,1.61,40.68,0,109.6,13.56,1.37,328.2
"2009-02-13 00:29:00",625368,2.253,9.36,14.8,1.117,1.958,100.5189,0.624,1.625,40.64,0,109.6,13.56,1.38,331.4
"2009-02-13 00:29:30",625369,3.195,16.31,16.51,1.762,2.055,100.5339,0.662,1.579,40.58,0,109.6,13.56,1.42,338.3
"2009-02-13 00:30:00",625370,4.997,21.32,10.5,1.293,4.497,100.5506,0.704,1.779,40.61,0,109.6,13.56,1.46,343.3
"2009-02-13 00:30:30",625371,5.791,19.2,6.346,0.954,4.794,100.5537,0.712,1.817,40.53,0,109.6,13.57,1.47,341.2
"2009-02-13 00:31:00",625372,4.979,21.93,7.699,1.291,5.054,100.5433,0.686,1.795,40.4,0,109.6,13.56,1.44,343.9
"2009-02-13 00:31:30",625373,4.105,19.09,9.65,1.495,3.793,100.545,0.69,1.752,40.34,0,109.6,13.57,1.44,341.1
"2009-02-13 00:32:00",625374,4.459,19.79,10.88,1.692,3.947,100.5439,0.687,1.712,40.4,0,109.5,13.56,1.44,341.8
"2009-02-13 00:32:30",625375,3.602,13.15,8.04,1.216,2.943,100.5628,0.736,1.698,40.47,0,109.5,13.57,1.49,335.1
"2009-02-13 00:33:00",625376,4.841,25.36,7.287,1.346,4.108,100.5772,0.772,1.754,40.49,0,109.5,13.57,1.53,347.4
"2009-02-13 00:33:30",625377,4.854,23.4,7.395,1.214,5.34,100.5772,0.772,1.893,40.4,0,109.6,13.57,1.53,345.4
"2009-02-13 00:34:00",625378,4.44,20.35,6.967,1.142,4.842,100.5772,0.772,1.852,40.29,0,109.6,13.57,1.53,342.4
"2009-02-13 00:34:30",625379,4.462,26.52,10.29,1.332,5.068,100.5772,0.772,1.867,40.51,0,109.5,13.57,1.53,348.5
"2009-02-13 00:35:00",625380,4.062,29.32,5.324,1.18,3.604,100.5787,0.776,1.819,40.38,0,109.5,13.57,1.53,351.3
"2009-02-13 00:35:30",625381,2.972,17.07,13.61,1.157,1.786,100.6058,0.845,1.715,40.16,0,109.5,13.57,1.60,339.1
"2009-02-13 00:36:00",625382,3.862,25.4,7.995,0.9,2.129,100.6112,0.859,1.79,40.05,0,109.5,13.57,1.61,347.4
"2009-02-13 00:36:30",625383,4.821,31.17,6.174,1.131,4.871,100.6115,0.86,1.932,40.12,0,109.5,13.57,1.61,353.2
"2009-02-13 00:37:00",625384,5.292,30.51,4.453,0.682,5.869,100.6112,0.859,1.974,40.16,0,109.6,13.56,1.61,352.5
"2009-02-13 00:37:30",625385,4.946,35.11,5.311,0.967,6.154,100.6112,0.859,2.039,40.29,0,109.5,13.56,1.61,357.1
"2009-02-13 00:38:00",625386,4.298,28.49,7.115,1.225,3.939,100.6112,0.859,1.822,40.06,0,109.5,13.56,1.61,350.5
"2009-02-13 00:38:30",625387,2.897,19.15,3.338,0.403,1.209,100.6112,0.859,1.753,39.9,0,109.5,13.59,1.61,341.1
"2009-02-13 00:39:00",625388,3.493,29.07,8.13,0.804,2.216,100.6112,0.859,1.901,40,0,109.5,13.57,1.61,351.1
"2009-02-13 00:39:30",625389,4.691,33.6,5.451,1.177,5.194,100.6112,0.859,2.008,40.11,0,109.5,13.57,1.61,355.6
"2009-02-13 00:40:00",625390,4.659,38.9,5.515,1.109,5.493,100.6115,0.86,2.043,40.19,0,109.5,13.57,1.61,0.9
"2009-02-13 00:40:30",625391,4.649,39.18,7.364,1.398,5.186,100.6154,0.87,2.022,40.19,0,109.5,13.57,1.62,1.2
"2009-02-13 00:41:00",625392,5.101,37.13,6.095,1.197,4.66,100.6203,0.882,1.947,40.13,0,109.5,13.57,1.64,359.1
"2009-02-13 00:41:30",625393,3.111,33.63,7.286,0.316,1.403,100.6256,0.896,1.768,39.91,0,109.5,13.6,1.65,355.6
"2009-02-13 00:42:00",625394,3.807,60.03,15.11,0.977,3.316,100.639,0.93,1.977,40.01,0,109.5,13.57,1.69,22.0
"2009-02-13 00:42:30",625395,4.111,69.6,10.67,1.141,4.811,100.6491,0.956,2,39.86,0,109.5,13.57,1.71,31.6
"2009-02-13 00:43:00",625396,4.663,46.7,7.975,1.066,5.901,100.6715,1.013,2.119,39.9,0,109.5,13.57,1.77,8.7
"2009-02-13 00:43:30",625397,4.481,42.64,5.136,1.134,4.793,100.6826,1.041,2.043,39.8,0,109.5,13.57,1.80,4.6
"2009-02-13 00:44:00",625398,4.56,50.81,7.337,1.146,4.09,100.6857,1.049,2.048,39.76,0,109.5,13.57,1.80,12.8
"2009-02-13 00:44:30",625399,3.286,54.74,6.42,0.365,2.022,100.6894,1.058,1.935,39.62,0,109.5,13.61,1.81,16.7
"2009-02-13 00:45:00",625400,5.171,59.3,5.782,1.057,5.177,100.6936,1.069,2.116,39.7,0,109.5,13.57,1.82,21.3
"2009-02-13 00:45:30",625401,4.847,51.1,15.07,1.102,5.068,100.6934,1.069,2.144,39.71,0,109.5,13.58,1.82,13.1
"2009-02-13 00:46:00",625402,4.302,37.54,12.62,1.24,4.776,100.6936,1.069,2.159,39.8,0,109.5,13.58,1.82,359.5
"2009-02-13 00:46:30",625403,4.656,45,8.9,1.047,4.829,100.6911,1.063,2.093,39.82,0,109.5,13.58,1.82,7.0
"2009-02-13 00:47:00",625404,3.495,40.85,8.68,1.337,3.035,100.6668,1.001,2.084,39.95,0,109.5,13.58,1.76,2.8
"2009-02-13 00:47:30",625405,2.377,36.59,6.331,0.335,1.232,100.664,0.994,1.88,39.83,0,109.5,13.61,1.75,358.6
"2009-02-13 00:48:00",625406,3.602,63.64,8.09,1.086,4.317,100.6654,0.997,2.107,39.99,0,109.5,13.58,1.75,25.6
"2009-02-13 00:48:30",625407,4.234,57.74,7.756,1.083,5.087,100.6708,1.011,2.12,39.96,0,109.5,13.58,1.77,19.7
"2009-02-13 00:49:00",625408,3.848,45.12,6.375,1.116,3.166,100.6829,1.042,2.064,39.94,0,109.5,13.58,1.80,7.1
"2009-02-13 00:49:30",625409,4.275,56.49,4.474,1.345,5.292,100.6824,1.041,2.154,40.04,0,109.5,13.58,1.80,18.5
"2009-02-13 00:50:00",625410,4.015,56.71,8.1,1.053,4.303,100.6855,1.048,2.038,39.92,0,109.5,13.58,1.80,18.7
"2009-02-13 00:50:30",625411,2.622,44.29,7.37,0.929,1.785,100.6926,1.067,1.904,39.81,0,109.5,13.58,1.82,6.3
"2009-02-13 00:51:00",625412,3.995,51.51,7.042,1.238,3.831,100.6946,1.072,2.087,39.97,0,109.5,13.58,1.83,13.5
"2009-02-13 00:51:30",625413,4.898,54.28,8.6,1.215,4.929,100.6982,1.081,2.102,40.04,0,109.5,13.58,1.84,16.3
"2009-02-13 00:52:00",625414,4.139,56.47,10.55,1.213,4.62,100.6835,1.043,2.208,40.16,0,109.5,13.58,1.80,18.5
"2009-02-13 00:52:30",625415,4.459,65.65,6.679,1.086,5.257,100.6815,1.038,2.155,40.14,0,109.5,13.57,1.79,27.7
"2009-02-13 00:53:00",625416,4.385,57.32,14.09,1.375,3.775,100.6815,1.038,2.024,40.04,0,109.5,13.58,1.79,19.3
"2009-02-13 00:53:30",625417,4.119,49.35,6.666,1.449,2.73,100.6722,1.015,1.942,39.97,0,109.5,13.57,1.77,11.3
"2009-02-13 00:54:00",625418,4.69,46.98,6.328,1.252,4.251,100.6722,1.015,2.083,40.14,0,109.5,13.57,1.77,9.0
"2009-02-13 00:54:30",625419,4.417,52.08,7.765,0.972,5.29,100.6716,1.013,2.119,40.19,0,109.5,13.57,1.77,14.1
"2009-02-13 00:55:00",625420,4.966,63.83,7.888,0.99,5.641,100.6714,1.012,2.113,40.41,0,109.6,13.57,1.77,25.8
"2009-02-13 00:55:30",625421,5.081,61.59,9.98,1.182,4.911,100.6683,1.005,2.051,40.38,0,109.5,13.57,1.76,23.6
"2009-02-13 00:56:00",625422,4.178,65.27,11.99,1.203,4.457,100.6578,0.978,2.058,40.5,0,109.6,13.57,1.73,27.3
"2009-02-13 00:56:30",625423,3.091,54.96,12.4,0.838,2.715,100.653,0.966,1.968,40.51,0,109.5,13.58,1.72,17.0
"2009-02-13 00:57:00",625424,3.914,78.64,9.06,1.085,4.995,100.6524,0.964,2.06,40.64,0,109.5,13.58,1.72,40.6
"2009-02-13 00:57:30",625425,4.527,59.6,5.351,0.908,4.835,100.6465,0.949,1.958,40.62,0,109.5,13.59,1.70,21.6
"2009-02-13 00:58:00",625426,4.008,55.59,7.928,1.432,4.032,100.64,0.932,2,40.63,0,109.6,13.59,1.69,17.6
"2009-02-13 00:58:30",625427,3.816,73.13,11.19,1.068,4.815,100.6377,0.927,2.068,40.8,0,109.6,13.59,1.68,35.1
"2009-02-13 00:59:00",625428,4.006,67.35,7.43,1.239,4.042,100.6385,0.929,1.962,40.75,0,109.6,13.59,1.68,29.3
"2009-02-13 00:59:30",625429,3.286,45.85,5.207,0.829,1.844,100.6405,0.934,1.935,40.73,0,109.5,13.59,1.69,7.8
"2009-02-13 01:00:00",625430,5.319,53.32,8.01,1.038,4.822,100.6349,0.919,1.998,40.8,0,109.6,13.59,1.67,15.3
"2009-02-13 01:00:30",625431,5.273,83.1,8.77,1.211,5.016,100.623,0.889,2.033,40.96,0,109.6,13.59,1.64,45.1
"2009-02-13 01:01:00",625432,4.792,83.1,11.54,0.803,6.049,100.6167,0.873,2.072,41.11,0,109.5,13.59,1.63,45.1
"2009-02-13 01:01:30",625433,4.633,68.39,8.43,1.467,4.604,100.6057,0.845,1.982,41.09,0,109.5,13.59,1.60,30.4
"2009-02-13 01:02:00",625434,3.784,66.69,9.99,1.378,3.248,100.6051,0.844,1.889,40.96,0,109.6,13.59,1.60,28.7
"2009-02-13 01:02:30",625435,3.44,78.09,18.89,1.105,2.596,100.6068,0.848,1.883,40.92,0,109.5,13.59,1.60,40.1
"2009-02-13 01:03:00",625436,4.471,89.2,14.96,1.323,4.119,100.608,0.851,1.892,40.89,0,109.6,13.59,1.61,51.2
"2009-02-13 01:03:30",625437,4.72,95.8,8.48,0.748,4.743,100.6068,0.848,1.962,40.98,0,109.6,13.59,1.60,57.8
"2009-02-13 01:04:00",625438,5.944,97.2,9.68,0.466,6.183,100.6057,0.845,2.027,41.08,0,109.5,13.59,1.60,59.2
"2009-02-13 01:04:30",625439,4.551,105.6,8.82,1.198,4.617,100.6071,0.849,1.954,40.91,0,109.5,13.59,1.60,67.6
"2009-02-13 01:05:00",625440,2.747,71.78,10.43,1.115,2.323,100.6077,0.85,1.852,40.87,0,109.6,13.59,1.61,33.8
"2009-02-13 01:05:30",625441,3.511,78.01,7.51,1.221,2.721,100.6035,0.839,1.758,40.94,0,109.6,13.59,1.59,40.0
"2009-02-13 01:06:00",625442,4.692,91.9,7.886,1.45,3.768,100.5893,0.803,1.893,41.05,0,109.5,13.59,1.56,53.9
"2009-02-13 01:06:30",625443,4.945,89.2,9.38,1.442,4.673,100.5788,0.776,1.939,41.14,0,109.6,13.59,1.53,51.2
"2009-02-13 01:07:00",625444,4.687,86.1,8.8,1.071,5.517,100.5757,0.769,1.938,41.37,0,109.5,13.59,1.52,48.1
"2009-02-13 01:07:30",625445,4.226,102.3,7.616,1.281,4.842,100.5766,0.771,1.861,41.25,0,109.5,13.59,1.53,64.3
"2009-02-13 01:08:00",625446,3.924,105.6,6.943,1.198,3.218,100.5763,0.77,1.791,40.88,0,109.5,13.59,1.52,67.6
"2009-02-13 01:08:30",625447,3.569,95,4.015,0.895,2.934,100.576,0.769,1.768,40.96,0,109.5,13.59,1.52,57.0
"2009-02-13 01:09:00",625448,4.454,99.5,7.836,1.246,3.809,100.5667,0.745,1.793,41.1,0,109.5,13.59,1.50,61.5
"2009-02-13 01:09:30",625449,4.058,113.5,7.734,1.223,4.913,100.5466,0.694,1.823,41.19,0,109.6,13.59,1.45,75.5
"2009-02-13 01:10:00",625450,5.153,126.7,5.005,0.62,5.817,100.5426,0.684,1.896,41.17,0,109.6,13.59,1.44,88.7
"2009-02-13 01:10:30",625451,4.313,117.8,5.09,1.136,3.84,100.5432,0.686,1.82,41.14,0,109.6,13.59,1.44,79.8
"2009-02-13 01:11:00",625452,5.37,131.1,5.155,1.119,4.141,100.5435,0.686,1.689,40.95,0,109.6,13.59,1.44,93.1
"2009-02-13 01:11:30",625453,4.798,133.6,6.754,1.24,3.563,100.5435,0.686,1.793,40.96,0,109.6,13.59,1.44,95.6
"2009-02-13 01:12:00",625454,6.346,138.5,5.66,1.028,5.501,100.5432,0.686,1.82,40.92,0,109.6,13.58,1.44,100.5
"2009-02-13 01:12:30",625455,6.639,141.5,4.516,0.433,6.517,100.5432,0.686,1.853,40.96,0,109.6,13.59,1.44,103.5
"2009-02-13 01:13:00",625456,6.287,142.3,4.023,0.672,6.539,100.5432,0.686,1.887,41,0,109.6,13.59,1.44,104.3
"2009-02-13 01:13:30",625457,5.017,137.7,6.277,1.302,4.544,100.5452,0.691,1.791,40.88,0,109.6,13.59,1.45,99.7
"2009-02-13 01:14:00",625458,5.303,133.3,5.652,1.214,4.318,100.5627,0.735,1.841,40.85,0,109.6,13.59,1.49,95.3
"2009-02-13 01:14:30",625459,4.906,131.6,7.533,1.078,3.96,100.5721,0.759,1.73,40.67,0,109.6,13.59,1.51,93.6
"2009-02-13 01:15:00",625460,5.733,141.6,9.19,1.067,5.438,100.5774,0.773,1.806,40.68,0,109.6,13.59,1.53,103.6
"2009-02-13 01:15:30",625461,5.34,144.3,6.454,1.113,5.349,100.5808,0.782,1.81,40.63,0,109.5,13.59,1.54,106.3
"2009-02-13 01:16:00",625462,6.191,145,3.759,0.871,6.233,100.5961,0.821,1.944,40.68,0,109.6,13.59,1.58,107.0
"2009-02-13 01:16:30",625463,4.908,139.4,6.435,1.238,4.38,100.6097,0.855,1.895,40.54,0,109.6,13.59,1.61,101.4
"2009-02-13 01:17:00",625464,5.144,140.5,6.307,1.169,4.64,100.6114,0.86,1.906,40.44,0,109.6,13.59,1.61,102.5
"2009-02-13 01:17:30",625465,4.985,140.1,6.003,1.199,3.848,100.6182,0.877,1.801,40.25,0,109.6,13.59,1.63,102.1
"2009-02-13 01:18:00",625466,5.602,143.9,5.685,1.102,5.715,100.6375,0.926,1.9,40.25,0,109.6,13.59,1.68,105.9
"2009-02-13 01:18:30",625467,5.468,142.2,6.384,1.101,5.764,100.6454,0.946,1.984,40.26,0,109.6,13.59,1.70,104.2
"2009-02-13 01:19:00",625468,5.713,141.7,5.997,1.052,5.932,100.6468,0.95,2.085,40.28,0,109.6,13.59,1.71,103.7
"2009-02-13 01:19:30",625469,5.685,144.2,5.019,1.082,5.719,100.6592,0.982,2.067,40.17,0,109.6,13.59,1.74,106.2
"2009-02-13 01:20:00",625470,5.289,143.7,6.092,0.929,5.576,100.6689,1.006,2.013,40.02,0,109.5,13.59,1.76,105.7
"2009-02-13 01:20:30",625471,4.234,135.8,6.676,1.056,3.339,100.6791,1.032,1.908,39.84,0,109.6,13.59,1.79,97.8
"2009-02-13 01:21:00",625472,4.351,139.5,5.365,0.941,3.734,100.6793,1.033,2.037,39.9,0,109.6,13.59,1.79,101.5
"2009-02-13 01:21:30",625473,5.335,145,6.129,1.049,5.76,100.6793,1.033,2.121,39.9,0,109.5,13.59,1.79,107.0
"2009-02-13 01:22:00",625474,5.587,143.3,6.216,1.018,5.76,100.6799,1.034,2.115,39.88,0,109.6,13.6,1.79,105.3
"2009-02-13 01:22:30",625475,5.973,145.7,4.114,0.668,6.467,100.6839,1.044,2.167,39.88,0,109.6,13.59,1.80,107.7
"2009-02-13 01:23:00",625476,4.885,141.7,6.723,1.231,4.367,100.6932,1.068,2.082,39.69,0,109.6,13.59,1.82,103.7
"2009-02-13 01:23:30",625477,5.441,141.6,5.578,1.109,5.068,100.7,1.086,2.113,39.71,0,109.6,13.59,1.84,103.6
"2009-02-13 01:24:00",625478,4.355,134.9,5.41,1.029,3.225,100.7054,1.099,2.046,39.61,0,109.6,13.59,1.86,96.9
"2009-02-13 01:24:30",625479,5.722,140.3,5.458,1.122,5.522,100.7076,1.105,2.128,39.64,0,109.6,13.59,1.86,102.3
"2009-02-13 01:25:00",625480,5.895,142.4,7.146,1.128,6.01,100.7054,1.099,2.239,39.78,0,109.6,13.59,1.86,104.4
"2009-02-13 01:25:30",625481,5.763,146.9,4.918,1.026,6.167,100.7076,1.105,2.248,39.73,0,109.6,13.59,1.86,108.9
"2009-02-13 01:26:00",625482,5.192,144.4,6.099,1.18,5.241,100.713,1.119,2.161,39.58,0,109.6,13.59,1.87,106.4
"2009-02-13 01:26:30",625483,5.312,142.9,6.825,1.187,4.699,100.7133,1.119,2.077,39.5,0,109.6,13.59,1.88,104.9
"2009-02-13 01:27:00",625484,4.62,134.5,4.45,0.99,4.041,100.7133,1.119,2.158,39.55,0,109.6,13.59,1.88,96.5
"2009-02-13 01:27:30",625485,5.711,140.9,6.801,1.163,5.409,100.7133,1.119,2.174,39.55,0,109.6,13.59,1.88,102.9
"2009-02-13 01:28:00",625486,5.876,142.1,5.556,1.044,5.962,100.7133,1.119,2.293,39.64,0,109.6,13.59,1.88,104.1
"2009-02-13 01:28:30",625487,6.379,143,4.321,0.443,6.76,100.7133,1.119,2.263,39.69,0,109.6,13.59,1.88,105.0
"2009-02-13 01:29:00",625488,5.684,141.3,5.764,1.056,5.428,100.7116,1.115,2.246,39.62,0,109.6,13.59,1.87,103.3
"2009-02-13 01:29:30",625489,5.051,138.1,6.026,1.11,3.396,100.7102,1.112,2.02,39.4,0,109.5,13.59,1.87,100.1
"2009-02-13 01:30:00",625490,5.931,139.8,7.136,1.248,4.219,100.7088,1.108,2.114,39.5,0,109.6,13.59,1.86,101.8
"2009-02-13 01:30:30",625491,5.949,147.1,7.231,1.212,5.798,100.7054,1.099,2.201,39.56,0,109.6,13.59,1.86,109.1
"2009-02-13 01:31:00",625492,6.652,147.4,4.328,0.594,6.906,100.7009,1.088,2.259,39.69,0,109.6,13.6,1.84,109.4
"2009-02-13 01:31:30",625493,6.535,145.8,3.888,0.748,6.707,100.6929,1.067,2.273,39.72,0,109.6,13.6,1.82,107.8
"2009-02-13 01:32:00",625494,6.096,143.9,5.178,1.05,6.02,100.6884,1.056,2.246,39.7,0,109.6,13.6,1.81,105.9
"2009-02-13 01:32:30",625495,4.932,143.1,3.074,1.038,3.119,100.6842,1.045,1.988,39.45,0,109.6,13.59,1.80,105.1
"2009-02-13 01:33:00",625496,6.838,147.2,6.398,1.427,4.924,100.6816,1.039,2.118,39.6,0,109.6,13.59,1.79,109.2
"2009-02-13 01:33:30",625497,6.613,152.1,5.054,1.258,5.697,100.6793,1.033,2.149,39.67,0,109.6,13.59,1.79,114.1
"2009-02-13 01:34:00",625498,6.711,150.6,4.406,0.706,6.879,100.6793,1.033,2.262,39.72,0,109.6,13.6,1.79,112.6
"2009-02-13 01:34:30",625499,7.136,147.9,4.28,0.569,6.81,100.6793,1.033,2.23,39.82,0,109.6,13.6,1.79,109.9
"2009-02-13 01:35:00",625500,7.257,147.9,3.714,0.53,6.778,100.6793,1.033,2.224,39.88,0,109.6,13.6,1.79,109.9
"2009-02-13 01:35:30",625501,6.292,141.2,5.684,1.01,4.987,100.6793,1.033,2.221,39.89,0,109.6,13.59,1.79,103.2
"2009-02-13 01:36:00",625502,6.777,144.3,5.989,1.154,4.631,100.6793,1.033,2.038,39.66,0,109.6,13.59,1.79,106.3
"2009-02-13 01:36:30",625503,5.687,141.2,4.436,0.899,2.725,100.6762,1.025,2.047,39.8,0,109.6,13.59,1.78,103.2
"2009-02-13 01:37:00",625504,7.177,150.9,5.17,0.91,5.973,100.6587,0.98,2.182,40.06,0,109.6,13.59,1.74,112.9
"2009-02-13 01:37:30",625505,7.36,149.9,4.11,0.974,6.694,100.6457,0.947,2.165,40.13,0,109.6,13.6,1.70,111.9
"2009-02-13 01:38:00",625506,7.643,154,4.755,0.701,6.97,100.6414,0.936,2.159,40.21,0,109.6,13.6,1.69,116.0
"2009-02-13 01:38:30",625507,7.56,154.3,3.655,0.567,6.743,100.6227,0.888,2.142,40.24,0,109.6,13.59,1.64,116.3
"2009-02-13 01:39:00",625508,7.481,154.7,3.1,0.661,6.316,100.6117,0.86,2.136,40.32,0,109.6,13.59,1.62,116.7
"2009-02-13 01:39:30",625509,7.039,153.7,4.081,0.661,5.961,100.6114,0.86,2.091,40.37,0,109.6,13.59,1.61,115.7
"2009-02-13 01:40:00",625510,7.076,153.2,3.622,0.804,5.53,100.6114,0.86,2.08,40.38,0,109.6,13.59,1.61,115.2
"2009-02-13 01:40:30",625511,6.255,146.5,4.482,1.336,3.52,100.6114,0.86,1.952,40.31,0,109.6,13.59,1.61,108.5
"2009-02-13 01:41:00",625512,4.922,145.5,2.445,0.184,1.664,100.6114,0.86,1.864,40.19,0,109.6,13.62,1.61,107.5
"2009-02-13 01:41:30",625513,6.926,150.8,5.794,1.133,4.656,100.6114,0.86,1.926,40.29,0,109.6,13.59,1.61,112.8
"2009-02-13 01:42:00",625514,7.886,152.8,5.43,1.102,6.005,100.6114,0.86,2.054,40.44,0,109.6,13.59,1.61,114.8
"2009-02-13 01:42:30",625515,7.985,155.4,4.208,0.66,7.12,100.6114,0.86,2.06,40.45,0,109.6,13.59,1.61,117.4
"2009-02-13 01:43:00",625516,7.583,155.7,3.554,0.696,6.966,100.6114,0.86,2.071,40.47,0,109.6,13.59,1.61,117.7
"2009-02-13 01:43:30",625517,7.839,156.2,3.44,0.8,6.745,100.6111,0.859,2.062,40.49,0,109.6,13.59,1.61,118.2
"2009-02-13 01:44:00",625518,8.03,156.6,4.109,0.654,6.262,100.6103,0.857,2.054,40.5,0,109.5,13.59,1.61,118.6
"2009-02-13 01:44:30",625519,8.1,157,3.697,0.66,5.968,100.599,0.828,2.047,40.52,0,109.6,13.59,1.58,119.0
"2009-02-13 01:45:00",625520,7.978,156.5,3.707,0.56,5.709,100.5905,0.806,2.042,40.55,0,109.6,13.59,1.56,118.5
"2009-02-13 01:45:30",625521,7.77,159.5,3.966,0.788,5.746,100.5857,0.794,2.011,40.58,0,109.6,13.59,1.55,121.5
"2009-02-13 01:46:00",625522,8.4,156.2,5.182,0.848,5.442,100.5794,0.778,2.016,40.62,0,109.6,13.59,1.53,118.2
"2009-02-13 01:46:30",625523,6.392,147.9,4.815,1.323,3.024,100.5774,0.773,1.909,40.55,0,109.6,13.59,1.53,109.9
"2009-02-13 01:47:00",625524,6.177,146.5,4.695,0.778,2.582,100.5774,0.773,1.853,40.5,0,109.6,13.59,1.53,108.5
"2009-02-13 01:47:30",625525,8.14,154.2,5.631,1.191,5.022,100.5769,0.771,1.95,40.66,0,109.6,13.59,1.53,116.2
"2009-02-13 01:48:00",625526,8.39,156.4,5.181,0.931,6.095,100.5607,0.73,1.983,40.74,0,109.6,13.59,1.48,118.4
"2009-02-13 01:48:30",625527,8.96,159.5,3.741,0.706,6.58,100.5443,0.688,1.967,40.9,0,109.6,13.6,1.44,121.5
"2009-02-13 01:49:00",625528,8.5,161.6,4.286,0.689,6.356,100.5435,0.686,1.942,41,0,109.6,13.59,1.44,123.6